Location: Bakhuizen
(52.8696°N, 5.4575°E)
Time: 14:09:28
(UTC+00:00)

ERS-1 Rocket - Pass Details

Date: 11 May 2021
Orbit: 753 x 757 km, 98.4° (Epoch: 19 June)

Event Time Altitude Azimuth Distance (km) Brightness Sun altitude
Exits shadow 20:30:21 11° 142° (SE) 2,229 4.7 -8.7°
Maximum altitude 20:35:05 53° 67° (ENE) 933 3.3 -9.1°
Drops below altitude 10° 20:39:58 10° 352° (N) 2,297 6.4 -9.6°
Sets 20:42:19 0° 348° (NNW) 3,227 7.4 -9.9°
